Location: Gleizolles
(44.4833°N, 6.7667°E)
Time: 17:08:47
(UTC+00:00)

Explorer 7 - Pass Details

Date: 18 June 2024
Orbit: 465 x 619 km, 50.3° (Epoch: 12 July)

Event Time Altitude Azimuth Distance (km) Brightness Sun altitude
Rises 10:44:04 0° 199° (SSW) 2,666 10.5 66.6°
Reaches altitude 10° 10:46:49 10° 180° (S) 1,746 9.9 66.8°
Maximum altitude 10:49:35 18° 136° (SE) 1,283 9.4 67.0°
Drops below altitude 10° 10:52:15 10° 91° (E) 1,693 9.6 67.3°
Sets 10:54:53 0° 73° (ENE) 2,553 10.3 67.5°
